Location: Burjasot
(39.5167°N, 0.4167°W)
Time: 01:12:46
(UTC+02:00)

ISS - Visible Passes

Search period start: 22 May 2024 00:00
Search period end: 01 June 2024 00:00
Orbit: 409 x 414 km, 51.6° (Epoch: 21 May)

Date Brightness Start Highest point End Pass type
(mag) Time Alt. Az. Time Alt. Az. Time Alt. Az.
22 May -1.8 00:10:39 10° NW 00:12:51 28° N 00:12:51 28° N visible
22 May -0.8 21:45:09 10° N 21:45:59 11° N 21:46:49 10° NNE visible
22 May -1.8 23:20:51 10° NNW 23:23:35 23° NNE 23:24:34 20° NE visible
23 May -0.6 00:57:09 10° WNW 00:57:21 11° WNW 00:57:21 11° WNW visible
23 May -1.3 22:31:04 10° NNW 22:33:21 17° NNE 22:35:37 10° ENE visible
24 May -2.1 00:07:04 10° NW 00:09:04 33° NW 00:09:04 33° NW visible
24 May -3.1 23:17:05 10° NW 23:20:18 46° NNE 23:20:46 42° ENE visible
25 May -2.2 22:27:07 10° NW 22:30:04 29° NNE 22:32:28 13° E visible
26 May -1.7 00:03:40 10° WNW 00:05:15 22° W 00:05:15 22° W visible
26 May -3.8 23:13:20 10° WNW 23:16:38 66° SW 23:16:56 61° S visible
27 May -3.6 22:23:07 10° NW 22:26:26 66° NE 22:28:39 19° ESE visible
28 May -0.9 00:01:09 10° WSW 00:01:26 11° WSW 00:01:26 11° WSW visible
28 May -2.2 23:09:54 10° WNW 23:12:35 23° SW 23:13:08 22° SSW visible
29 May -3.0 22:19:15 10° WNW 22:22:25 43° SW 22:24:52 15° SSE visible
31 May -1.4 22:15:54 10° W 22:18:02 16° SW 22:20:10 10° S visible
